Regional Weather Roundup
Issued by NWS

Home | Current Version | Previous Version | Graphics & Text | Print | Product List | Glossary Off
Versions: 1 2 3 4 5 6 7 8 9 10 11 12 13 14 15 16 17 18 19 20 21 22 23 24 25 26 27 28 29 30 31 32 33 34 35 36 37 38 39 40 41 42 43 44 45 46 47 48 49 50

000
ASUS43 KTOP 230208
RWRKS

WEATHER ROUNDUP FOR KANSAS
NATIONAL WEATHER SERVICE GOODLAND KS
900 PM CDT FRI MAY 22 2015

NOTE:  "FAIR" INDICATES FEW OR NO CLOUDS BELOW 12,000 FEET WITH NO
SIGNIFICANT WEATHER AND/OR OBSTRUCTIONS TO VISIBILITY.

KSZ001>006-013>018-027>032-041>047-230300-
NORTHWEST KANSAS

CITY           SKY/WX    TMP DP  RH WIND       PRES   REMARKS
GOODLAND       CLOUDY    54  52  93 SE16      30.02R
HAYS           CLOUDY    55  48  76 SE15      30.09S
HILL CITY      CLOUDY    55  54  96 SE8       30.08R FOG
RUSSELL        CLOUDY    55  55 100 SE14      30.10R FOG
$$

KSZ061>065-074>080-084>089-230300-
SOUTHWEST KANSAS

CITY           SKY/WX    TMP DP  RH WIND       PRES   REMARKS
DODGE CITY     CLOUDY    56  53  90 SE16G24   30.07R FOG
ELKHART          N/A     60  51  72 SE16        N/A
GARDEN CITY    CLOUDY    56  54  93 SE17      30.02R
GREAT BEND     CLOUDY    55  52  88 SE14      30.10S
LIBERAL        PTCLDY    59  54  82 SE21      30.02S
PRATT          CLOUDY    54  54 100 SE10      30.12S FOG
$$

KSZ066>073-081>083-090>101-230300-
SOUTHEAST KANSAS

CITY           SKY/WX    TMP DP  RH WIND       PRES   REMARKS
CHANUTE        CLOUDY    61  51  70 E3        30.17S
COFFEYVILLE    CLOUDY    62  56  80 SE3       30.16S
HUTCHINSON     LGT RAIN  57  54  89 SE12      30.14R FOG
MEDICINE LODGE   N/A     56  55  97 SE8       30.11R
NEWTON         CLOUDY    57  48  72 SE10G17   30.17R
PARSONS        CLOUDY    62  53  72 MISG      30.18S
WICHITA INTL   DRIZZLE   56  54  93 SE8       30.15R FOG
WICHITA JABRA  CLOUDY    55  53  93 SE7       30.15R
WICHITA MCCONL CLOUDY    56  54  91 SE12      30.15R
WINFIELD       LGT RAIN  56  52  86 SE7       30.17R
$$

KSZ007>012-019>026-033>040-048>060-102>105-230300-
NORTHEAST KANSAS

CITY           SKY/WX    TMP DP  RH WIND       PRES   REMARKS
CONCORDIA      CLOUDY    58  49  72 SE14G21   30.15S
EMPORIA        CLOUDY    59  49  69 SE7       30.17R
LAWRENCE       CLOUDY    60  53  77 SE5       30.20R
MANHATTAN      CLOUDY    60  48  64 SE7       30.16R
MARYSVILLE     CLOUDY    59  45  58 SE8       30.17S
OLATHE IND     CLOUDY    61  52  72 E5        30.20R
OLATHE EXE     CLOUDY    60  51  72 E6        30.19R
SALINA         CLOUDY    59  52  77 SE9       30.15R
TOPEKA BILLARD CLOUDY    60  50  69 SE6       30.19R
TOPEKA FORBES  CLOUDY    61  50  67 SE7       30.18S
$$



USA.gov is the U.S. government's official web portal to all federal, state and local government web resources and services.